Regional Weather Roundup
Issued by NWS Upton, NY

Current Version | Previous Version | Text Only | Print | Product List | Glossary On
Versions: 1 2 3 4 5 6 7 8 9 10 11 12 13 14 15 16 17 18 19 20 21 22 23 24 25 26 27
000 ASUS41 KOKX 101708 RWROKX REGIONAL WEATHER ROUNDUP NATIONAL WEATHER SERVICE NEW YORK NY 1200 PM EST SAT DEC 10 2016 NOTE: "FAIR" INDICATES FEW OR NO CLOUDS BELOW 12,000 FEET WITH NO SIGNIFICANT WEATHER AND/OR OBSTRUCTIONS TO VISIBILITY. NYZ071-072-176-178-NJZ106-104-101800- NEW YORK CITY METRO AREA CITY SKY/WX TMP DP RH WIND PRES REMARKS Central Park PTSUNNY 33 18 53 VRB5 30.38F WCI 29 Wall St Helipt PTSUNNY 37 21 52 W17G48 30.37F WCI 27 Bronx Bot Gard N/A 32 18 55 N10 30.35F WCI 24 LaGuardia APRT PTSUNNY 35 20 54 NW9 30.37F WCI 28 Kennedy INTL PTSUNNY 38 19 46 W12 30.38F WCI 30 Breezy Point N/A 34 N/A N/A W10 N/A WCI 26 Newark/Liberty PTSUNNY 36 18 48 W15G24 30.37F WCI 27 Teterboro PTSUNNY 34 18 52 W9 30.36F WCI 27 $$ NYZ177-179-078>081-101800- LONG ISLAND NEW YORK CITY SKY/WX TMP DP RH WIND PRES REMARKS Jones Beach N/A 34 N/A N/A W13 N/A WCI 25 Matinecock PT N/A 36 N/A N/A W20 N/A WCI 25 Farmingdale SUNNY 34 15 46 W15G24 30.36F WCI 24 MacArthur/ISP MOSUNNY 34 14 43 NW17 30.34F WCI 23 Shirley LGT RAIN 33 15 47 W15 30.35F WCI 23 Westhampton NOT AVBL Southampton N/A 34 21 60 NW9 30.31F WCI 26 Bridgehampton NOT AVBL East Hampton N/A 31 14 48 NW14G20 30.33F WCI 21 Montauk N/A 32 15 49 NW13 30.32F WCI 22 $$ NYZ052-065-067-101800- HUDSON VALLEY CITY SKY/WX TMP DP RH WIND PRES REMARKS White Plains MOSUNNY 32 14 47 W12 30.32F WCI 23 Newburgh PTSUNNY 28 18 64 NW14 30.34F WCI 17 Montgomery PTSUNNY 31 16 54 NW8 30.32F WCI 23 Poughkeepsie CLOUDY 29 13 51 NW7 30.34F WCI 22 Albany MOSUNNY 27 8 44 NW9 30.34F WCI 18 $$ NJZ001-105-106-008-010-013-015-019>022-104-101800- NEW JERSEY CITY SKY/WX TMP DP RH WIND PRES REMARKS Newark/Liberty PTSUNNY 36 18 48 W15G24 30.37F WCI 27 Teterboro PTSUNNY 34 18 52 W9 30.36F WCI 27 Caldwell CLOUDY 34 17 50 NW12 30.36F WCI 25 Somerville MOSUNNY 34 18 52 W8G16 30.36F WCI 27 Linden PTSUNNY 35 18 51 NW15 30.38F WCI 25 Sussex CLOUDY 30 21 69 S5 30.33F WCI 25 Andover N/A 30 18 60 SW8 30.34F WCI 22 Trenton CLOUDY 35 17 47 W10 30.38F WCI 27 Millville SUNNY 36 19 50 NW10 30.42F WCI 28 Atlantic City SUNNY 37 18 46 NW12 30.40F WCI 29 Wrightstown SUNNY 35 18 49 W13 30.37F WCI 27 Toms River SUNNY 36 19 50 NW17 30.39F WCI 26 Belmar SUNNY 37 18 46 W13 30.38F WCI 29 $$ PAZ047>061-062-071-101800- EASTERN PENNSYLVANIA CITY SKY/WX TMP DP RH WIND PRES REMARKS Philadelphia MOSUNNY 35 15 44 NW14 30.42F WCI 26 Allentown CLOUDY 34 16 47 W14 30.37F WCI 25 Scranton CLOUDY 30 19 63 W9 30.31S WCI 22 $$ CTZ002-004>006-009-010-012-RIZ004-006-007-MAZ004-011-015-101800- SOUTHERN NEW ENGLAND IN CT CITY SKY/WX TMP DP RH WIND PRES REMARKS Bradley INTL PTSUNNY 29 9 43 NW13 30.32F WCI 19 Hartford SUNNY 30 10 43 NW12G21 30.33F WCI 20 Danbury MOSUNNY 29 12 49 NW8 30.33F WCI 21 Wtrbury/Oxford MOSUNNY 27 10 50 NW9 30.31F WCI 17 Bridgeport MOSUNNY 34 15 46 NW9 30.34F WCI 27 Meriden SUNNY 32 10 40 W14G21 30.32F WCI 22 New Haven MOSUNNY 31 13 47 NW8 30.34F WCI 23 Chester N/A 28 9 43 NW13G21 30.30F WCI 18 Groton SUNNY 34 9 35 NW9 30.31F WCI 27 Wilimantic SUNNY 29 10 45 NW12G22 30.32F WCI 19 IN RI CITY SKY/WX TMP DP RH WIND PRES REMARKS Providence PTSUNNY 29 3 33 NW14G24 30.29F WCI 18 Block Island SUNNY 30 15 53 NW10G20 30.30F WCI 21 Westerly SUNNY 31 7 36 W12G17 30.31F WCI 22 IN MA CITY SKY/WX TMP DP RH WIND PRES REMARKS Boston MOSUNNY 28 7 41 W12G21 30.28F WCI 18 Worcester SUNNY 22 1 40 W14 30.22F WCI 9 Westfield SUNNY 28 7 41 NW12G29 30.30F WCI 18 Provincetown CLOUDY 27 15 61 W13G21 30.27F WCI 16 Nantucket SUNNY 29 10 45 W15G22 30.27F WCI 18 $$ ANZ330-335-338-340-345-350-353-355-101800- COASTAL MARINE OBSERVATIONS STATION/POSITION TIME SKY/WX TEMP WIND PRES VSBY WAVE AIR SEA DIR/SP/G HT/PER (UTC) (F) (DEG/KT/KT) (MB) (MI) (FT/S) NY HARB ENTRANCE 1550 34 51 290/ 17/ 19 1029.0 3/ 4 20 S FIRE ISLAND 1650 35 52 300/ 19/ 23 1027.8 4/ 5 GREAT SOUTH BAY 1615 33 39 N/A 23 SSW MONTAUK P 1550 32 54 290/ 17/ 25 1028.1 4/ 5 15 E BARNEGAT LI 1630 51 N/A 3/ 4 HUDSON CANYON 1550 38 55 1028.3 6/ 6 KINGS POINT 1636 33 45 1028.2 EXECUTION ROCKS 1645 37 250/ 14/ 19 N/A CENTRAL LI SOUND 1615 30 49 290/ 14/ 17 N/A 2/ 3 EASTERN LI SOUND NOT AVBL ROBBINS REEF 1636 33 290/ 16/ 20 1028.6 $$ >>>>>>>>>>>>>>>>>>>>>>>>>>>> KEY <<<<<<<<<<<<<<<<<<<<<<<<<<< > < > SKY/WX - Sky Condition/Present Weather < > TMP - Temperature in Fahrenheit < > DP - Dew Point in Fahrenheit < > RH - Relative Humidity in Percent < > WIND - Direction (from) and Speed in MPH < > PRES - Mean Sea Level Pressure (inches of Hg) < > WCI - Wind Chill Index < > VSB - VISIBILITY IN MILES < > HX - HEAT INDEX < > TC - TEMPERATURE IN CELSIUS < > VRB - VARIABLE WIND DIRECTION < > < >>>>>>>>>>>>>>>>>>>>>>>>>>>> KEY <<<<<<<<<<<<<<<<<<<<<<<<<<<

USA.gov is the U.S. government's official web portal to all federal, state and local government web resources and services.